Terug naar catalogus

COSMOS 1636

ActiefMilitairLEO
NORAD 15618·PAYLOAD·🇷🇺 Russia

Gelanceerd Mar 21, 1985 vanaf Plesetsk Cosmodrome

Loading…

Volgende Passages (komende 24 uur)

TLE

VersSource: Space-Track

Epoch: Sep 14, 2026, 10:06 UTC

1 15618U 85023B   26257.42122843 -.00000027  00000-0 -81812-4 0  9992
2 15618  74.0536  62.0059 0013160 286.2633  98.6751 12.45359144885983

Volg COSMOS 1636 in realtime met AllMySat

Download on the App Store